owner,sensor,date,latitude,longitude,vertical_datum,sea_water_practical_salinity,qcFlag 
NERRS,ioos:station:NOAA.NERRS:gndbhwq:1,2014-09-01T00:00:00Z,30.4178,-88.4054,1.41,27.2,1111122 
NERRS,ioos:station:NOAA.NERRS:gndbhwq:1,2014-09-01T02:00:00Z,30.4178,-88.4054,1.48,26.7,1111122 
NERRS,ioos:station:NOAA.NERRS:gndbhwq:1,2014-09-01T03:00:00Z,30.4178,-88.4054,1.52,27.2,1111122 
NERRS,ioos:station:NOAA.NERRS:gndbhwq:1,2014-09-01T04:00:00Z,30.4178,-88.4054,1.55,27.2,1111122 
NERRS,ioos:station:NOAA.NERRS:gndbhwq:1,2014-09-01T05:00:00Z,30.4178,-88.4054,1.59,27.3,1111122 
NERRS,ioos:station:NOAA.NERRS:gndbhwq:1,2014-09-01T06:00:00Z,30.4178,-88.4054,1.61,27.5,1111122 
NERRS,ioos:station:NOAA.NERRS:gndbhwq:1,2014-09-01T07:00:00Z,30.4178,-88.4054,1.62,27.6,1111122 
NERRS,ioos:station:NOAA.NERRS:gndbhwq:1,2014-09-01T08:00:00Z,30.4178,-88.4054,1.65,27.7,1111122 
NERRS,ioos:station:NOAA.NERRS:gndbhwq:1,2014-09-01T09:00:00Z,30.4178,-88.4054,1.68,27.7,1111122 
NERRS,ioos:station:NOAA.NERRS:gndbhwq:1,2014-09-01T10:00:00Z,30.4178,-88.4054,1.64,27.8,1111122 
NERRS,ioos:station:NOAA.NERRS:gndbhwq:1,2014-09-01T11:00:00Z,30.4178,-88.4054,1.59,27.8,1111122 
NERRS,ioos:station:NOAA.NERRS:gndbhwq:1,2014-09-01T12:00:00Z,30.4178,-88.4054,1.55,27.8,1111122 
NERRS,ioos:station:NOAA.NERRS:gndbhwq:1,2014-09-01T13:00:00Z,30.4178,-88.4054,1.51,27.8,1111122 
NERRS,ioos:station:NOAA.NERRS:gndbhwq:1,2014-09-01T14:00:00Z,30.4178,-88.4054,1.48,27.8,1111122 
NERRS,ioos:station:NOAA.NERRS:gndbhwq:1,2014-09-01T15:00:00Z,30.4178,-88.4054,1.42,27.8,1111122 
NERRS,ioos:station:NOAA.NERRS:gndbhwq:1,2014-09-01T16:00:00Z,30.4178,-88.4054,1.39,27.8,1111122 
NERRS,ioos:station:NOAA.NERRS:gndbhwq:1,2014-09-01T17:00:00Z,30.4178,-88.4054,1.41,27.7,1111122 
NERRS,ioos:station:NOAA.NERRS:gndbhwq:1,2014-09-01T18:00:00Z,30.4178,-88.4054,1.37,27.6,1111122 
NERRS,ioos:station:NOAA.NERRS:gndbhwq:1,2014-09-01T19:00:00Z,30.4178,-88.4054,1.37,27.4,1111122 
NERRS,ioos:station:NOAA.NERRS:gndbhwq:1,2014-09-01T20:00:00Z,30.4178,-88.4054,1.34,27.5,1111122 
NERRS,ioos:station:NOAA.NERRS:gndbhwq:1,2014-09-01T21:00:00Z,30.4178,-88.4054,1.32,27.4,1111122 
NERRS,ioos:station:NOAA.NERRS:gndbhwq:1,2014-09-01T22:00:00Z,30.4178,-88.4054,1.41,27.3,1111122 
NERRS,ioos:station:NOAA.NERRS:gndbhwq:1,2014-09-01T23:00:00Z,30.4178,-88.4054,1.41,27.3,1111122 
NERRS,ioos:station:NOAA.NERRS:gndbhwq:1,2014-09-02T00:00:00Z,30.4178,-88.4054,1.42,27.3,1111122 
NERRS,ioos:station:NOAA.NERRS:gndbhwq:1,2014-09-02T01:00:00Z,30.4178,-88.4054,1.46,27.2,1111122 
NERRS,ioos:station:NOAA.NERRS:gndbhwq:1,2014-09-02T02:00:00Z,30.4178,-88.4054,1.44,27.4,1111122 
NERRS,ioos:station:NOAA.NERRS:gndbhwq:1,2014-09-02T03:00:00Z,30.4178,-88.4054,1.52,27.4,1111122 
NERRS,ioos:station:NOAA.NERRS:gndbhwq:1,2014-09-02T04:00:00Z,30.4178,-88.4054,1.49,27.4,1111122 
NERRS,ioos:station:NOAA.NERRS:gndbhwq:1,2014-09-02T05:00:00Z,30.4178,-88.4054,1.55,27.5,1111122 
NERRS,ioos:station:NOAA.NERRS:gndbhwq:1,2014-09-02T06:00:00Z,30.4178,-88.4054,1.6,27.6,1111122 
NERRS,ioos:station:NOAA.NERRS:gndbhwq:1,2014-09-02T07:00:00Z,30.4178,-88.4054,1.63,27.6,1111122 
NERRS,ioos:station:NOAA.NERRS:gndbhwq:1,2014-09-02T08:00:00Z,30.4178,-88.4054,1.69,27.7,1111122 
NERRS,ioos:station:NOAA.NERRS:gndbhwq:1,2014-09-02T09:00:00Z,30.4178,-88.4054,1.7,27.8,1111122 
NERRS,ioos:station:NOAA.NERRS:gndbhwq:1,2014-09-02T10:00:00Z,30.4178,-88.4054,1.64,27.7,1111122 
NERRS,ioos:station:NOAA.NERRS:gndbhwq:1,2014-09-02T11:00:00Z,30.4178,-88.4054,1.57,27.7,1111122 
NERRS,ioos:station:NOAA.NERRS:gndbhwq:1,2014-09-02T12:00:00Z,30.4178,-88.4054,1.53,27.7,1111122 
NERRS,ioos:station:NOAA.NERRS:gndbhwq:1,2014-09-02T13:00:00Z,30.4178,-88.4054,1.5,27.8,1111122 
NERRS,ioos:station:NOAA.NERRS:gndbhwq:1,2014-09-02T14:00:00Z,30.4178,-88.4054,1.46,27.8,1111122 
NERRS,ioos:station:NOAA.NERRS:gndbhwq:1,2014-09-02T15:00:00Z,30.4178,-88.4054,1.41,27.9,1111122 
NERRS,ioos:station:NOAA.NERRS:gndbhwq:1,2014-09-02T16:00:00Z,30.4178,-88.4054,1.32,27.8,1111122 
NERRS,ioos:station:NOAA.NERRS:gndbhwq:1,2014-09-02T17:00:00Z,30.4178,-88.4054,1.29,27.9,1111122 
NERRS,ioos:station:NOAA.NERRS:gndbhwq:1,2014-09-02T18:00:00Z,30.4178,-88.4054,1.26,27.8,1111122 
NERRS,ioos:station:NOAA.NERRS:gndbhwq:1,2014-09-02T19:00:00Z,30.4178,-88.4054,1.25,27.7,1111122 
NERRS,ioos:station:NOAA.NERRS:gndbhwq:1,2014-09-02T20:00:00Z,30.4178,-88.4054,1.22,27.7,1111122 
NERRS,ioos:station:NOAA.NERRS:gndbhwq:1,2014-09-02T21:00:00Z,30.4178,-88.4054,1.2,27.6,1111122 
NERRS,ioos:station:NOAA.NERRS:gndbhwq:1,2014-09-02T22:00:00Z,30.4178,-88.4054,1.19,27.5,1111122 
NERRS,ioos:station:NOAA.NERRS:gndbhwq:1,2014-09-03T00:00:00Z,30.4178,-88.4054,1.29,27.6,1111122 
NERRS,ioos:station:NOAA.NERRS:gndbhwq:1,2014-09-03T01:00:00Z,30.4178,-88.4054,1.3,27.5,1111122 
NERRS,ioos:station:NOAA.NERRS:gndbhwq:1,2014-09-03T02:00:00Z,30.4178,-88.4054,1.38,27.7,1111122 
NERRS,ioos:station:NOAA.NERRS:gndbhwq:1,2014-09-03T03:00:00Z,30.4178,-88.4054,1.4,27.9,1111122 
NERRS,ioos:station:NOAA.NERRS:gndbhwq:1,2014-09-03T04:00:00Z,30.4178,-88.4054,1.41,27.9,1111122 
NERRS,ioos:station:NOAA.NERRS:gndbhwq:1,2014-09-03T05:00:00Z,30.4178,-88.4054,1.41,28.0,1111122 
NERRS,ioos:station:NOAA.NERRS:gndbhwq:1,2014-09-03T06:00:00Z,30.4178,-88.4054,1.44,28.1,1111122 
NERRS,ioos:station:NOAA.NERRS:gndbhwq:1,2014-09-03T07:00:00Z,30.4178,-88.4054,1.51,28.3,1111122 
NERRS,ioos:station:NOAA.NERRS:gndbhwq:1,2014-09-03T08:00:00Z,30.4178,-88.4054,1.5,28.4,1111122 
NERRS,ioos:station:NOAA.NERRS:gndbhwq:1,2014-09-03T09:00:00Z,30.4178,-88.4054,1.56,28.4,1111122 
NERRS,ioos:station:NOAA.NERRS:gndbhwq:1,2014-09-03T10:00:00Z,30.4178,-88.4054,1.56,28.4,1111122 
NERRS,ioos:station:NOAA.NERRS:gndbhwq:1,2014-09-03T11:00:00Z,30.4178,-88.4054,1.52,28.4,1111122 
NERRS,ioos:station:NOAA.NERRS:gndbhwq:1,2014-09-03T12:00:00Z,30.4178,-88.4054,1.64,28.5,1111122 
NERRS,ioos:station:NOAA.NERRS:gndbhwq:1,2014-09-03T13:00:00Z,30.4178,-88.4054,1.51,28.3,1111122 
NERRS,ioos:station:NOAA.NERRS:gndbhwq:1,2014-09-03T14:00:00Z,30.4178,-88.4054,1.48,28.3,1111122 
NERRS,ioos:station:NOAA.NERRS:gndbhwq:1,2014-09-03T15:00:00Z,30.4178,-88.4054,1.33,28.3,1111122 
NERRS,ioos:station:NOAA.NERRS:gndbhwq:1,2014-09-03T16:00:00Z,30.4178,-88.4054,1.34,28.3,1111122 
NERRS,ioos:station:NOAA.NERRS:gndbhwq:1,2014-09-04T01:00:00Z,30.4178,-88.4054,1.22,28.5,1111122 
NERRS,ioos:station:NOAA.NERRS:gndbhwq:1,2014-09-04T02:00:00Z,30.4178,-88.4054,1.28,28.5,1111122 
NERRS,ioos:station:NOAA.NERRS:gndbhwq:1,2014-09-04T03:00:00Z,30.4178,-88.4054,1.32,28.5,1111122 
NERRS,ioos:station:NOAA.NERRS:gndbhwq:1,2014-09-04T04:00:00Z,30.4178,-88.4054,1.33,28.5,1111122 
NERRS,ioos:station:NOAA.NERRS:gndbhwq:1,2014-09-04T05:00:00Z,30.4178,-88.4054,1.44,28.5,1111122 
NERRS,ioos:station:NOAA.NERRS:gndbhwq:1,2014-09-04T06:00:00Z,30.4178,-88.4054,1.47,28.6,1111122 
NERRS,ioos:station:NOAA.NERRS:gndbhwq:1,2014-09-04T07:00:00Z,30.4178,-88.4054,1.51,28.6,1111122 
NERRS,ioos:station:NOAA.NERRS:gndbhwq:1,2014-09-04T08:00:00Z,30.4178,-88.4054,1.54,28.6,1111122 
NERRS,ioos:station:NOAA.NERRS:gndbhwq:1,2014-09-04T09:00:00Z,30.4178,-88.4054,1.58,28.6,1111122 
NERRS,ioos:station:NOAA.NERRS:gndbhwq:1,2014-09-04T10:00:00Z,30.4178,-88.4054,1.62,28.6,1111122 
NERRS,ioos:station:NOAA.NERRS:gndbhwq:1,2014-09-04T11:00:00Z,30.4178,-88.4054,1.66,28.6,1111122 
NERRS,ioos:station:NOAA.NERRS:gndbhwq:1,2014-09-04T12:00:00Z,30.4178,-88.4054,1.61,28.7,1111122 
NERRS,ioos:station:NOAA.NERRS:gndbhwq:1,2014-09-04T13:00:00Z,30.4178,-88.4054,1.57,28.5,1111122 
NERRS,ioos:station:NOAA.NERRS:gndbhwq:1,2014-09-04T14:00:00Z,30.4178,-88.4054,1.53,28.5,1111122 
NERRS,ioos:station:NOAA.NERRS:gndbhwq:1,2014-09-04T15:00:00Z,30.4178,-88.4054,1.53,28.5,1111122 
NERRS,ioos:station:NOAA.NERRS:gndbhwq:1,2014-09-04T16:00:00Z,30.4178,-88.4054,1.46,28.3,1111122 
NERRS,ioos:station:NOAA.NERRS:gndbhwq:1,2014-09-04T17:00:00Z,30.4178,-88.4054,1.4,28.3,1111122 
NERRS,ioos:station:NOAA.NERRS:gndbhwq:1,2014-09-04T18:00:00Z,30.4178,-88.4054,1.29,28.4,1111122 
NERRS,ioos:station:NOAA.NERRS:gndbhwq:1,2014-09-04T19:00:00Z,30.4178,-88.4054,1.21,28.2,1111122 
NERRS,ioos:station:NOAA.NERRS:gndbhwq:1,2014-09-04T20:00:00Z,30.4178,-88.4054,1.18,28.0,1111122 
NERRS,ioos:station:NOAA.NERRS:gndbhwq:1,2014-09-04T21:00:00Z,30.4178,-88.4054,1.16,28.0,1111122 
NERRS,ioos:station:NOAA.NERRS:gndbhwq:1,2014-09-04T22:00:00Z,30.4178,-88.4054,1.08,27.9,1111122 
NERRS,ioos:station:NOAA.NERRS:gndbhwq:1,2014-09-04T23:00:00Z,30.4178,-88.4054,1.16,28.1,1111122 
NERRS,ioos:station:NOAA.NERRS:gndbhwq:1,2014-09-05T00:00:00Z,30.4178,-88.4054,1.13,28.1,1111122 
NERRS,ioos:station:NOAA.NERRS:gndbhwq:1,2014-09-05T01:00:00Z,30.4178,-88.4054,1.15,28.1,1111122 
NERRS,ioos:station:NOAA.NERRS:gndbhwq:1,2014-09-05T02:00:00Z,30.4178,-88.4054,1.26,28.2,1111122 
NERRS,ioos:station:NOAA.NERRS:gndbhwq:1,2014-09-05T03:00:00Z,30.4178,-88.4054,1.32,28.1,1111122 
NERRS,ioos:station:NOAA.NERRS:gndbhwq:1,2014-09-05T04:00:00Z,30.4178,-88.4054,1.37,28.1,1111122 
NERRS,ioos:station:NOAA.NERRS:gndbhwq:1,2014-09-05T05:00:00Z,30.4178,-88.4054,1.42,28.1,1111122 
NERRS,ioos:station:NOAA.NERRS:gndbhwq:1,2014-09-05T06:00:00Z,30.4178,-88.4054,1.41,28.0,1111122 
NERRS,ioos:station:NOAA.NERRS:gndbhwq:1,2014-09-05T07:00:00Z,30.4178,-88.4054,1.43,28.0,1111122 
NERRS,ioos:station:NOAA.NERRS:gndbhwq:1,2014-09-05T08:00:00Z,30.4178,-88.4054,1.49,28.2,1111122 
NERRS,ioos:station:NOAA.NERRS:gndbhwq:1,2014-09-05T09:00:00Z,30.4178,-88.4054,1.57,28.2,1111122 
NERRS,ioos:station:NOAA.NERRS:gndbhwq:1,2014-09-05T10:00:00Z,30.4178,-88.4054,1.62,28.1,1111122 
NERRS,ioos:station:NOAA.NERRS:gndbhwq:1,2014-09-05T12:00:00Z,30.4178,-88.4054,1.64,28.1,1111122 
NERRS,ioos:station:NOAA.NERRS:gndbhwq:1,2014-09-05T13:00:00Z,30.4178,-88.4054,1.59,28.1,1111122 
NERRS,ioos:station:NOAA.NERRS:gndbhwq:1,2014-09-05T14:00:00Z,30.4178,-88.4054,1.61,28.1,1111122 
NERRS,ioos:station:NOAA.NERRS:gndbhwq:1,2014-09-05T15:00:00Z,30.4178,-88.4054,1.57,28.1,1111122 
NERRS,ioos:station:NOAA.NERRS:gndbhwq:1,2014-09-05T16:00:00Z,30.4178,-88.4054,1.56,28.1,1111122 
NERRS,ioos:station:NOAA.NERRS:gndbhwq:1,2014-09-05T17:00:00Z,30.4178,-88.4054,1.44,28.1,1111122 
NERRS,ioos:station:NOAA.NERRS:gndbhwq:1,2014-09-05T18:00:00Z,30.4178,-88.4054,1.3,28.1,1111122 
NERRS,ioos:station:NOAA.NERRS:gndbhwq:1,2014-09-05T19:00:00Z,30.4178,-88.4054,1.21,28.1,1111122 
NERRS,ioos:station:NOAA.NERRS:gndbhwq:1,2014-09-05T20:00:00Z,30.4178,-88.4054,1.18,28.1,1111122 
NERRS,ioos:station:NOAA.NERRS:gndbhwq:1,2014-09-05T21:00:00Z,30.4178,-88.4054,1.11,28.0,1111122 
NERRS,ioos:station:NOAA.NERRS:gndbhwq:1,2014-09-05T22:00:00Z,30.4178,-88.4054,1.13,28.0,1111122 
NERRS,ioos:station:NOAA.NERRS:gndbhwq:1,2014-09-05T23:00:00Z,30.4178,-88.4054,1.11,28.0,1111122 
NERRS,ioos:station:NOAA.NERRS:gndbhwq:1,2014-09-06T00:00:00Z,30.4178,-88.4054,1.11,28.1,1111122 
NERRS,ioos:station:NOAA.NERRS:gndbhwq:1,2014-09-06T01:00:00Z,30.4178,-88.4054,1.12,28.1,1111122 
NERRS,ioos:station:NOAA.NERRS:gndbhwq:1,2014-09-06T02:00:00Z,30.4178,-88.4054,1.19,28.2,1111122 
NERRS,ioos:station:NOAA.NERRS:gndbhwq:1,2014-09-06T03:00:00Z,30.4178,-88.4054,1.21,28.2,1111122 
NERRS,ioos:station:NOAA.NERRS:gndbhwq:1,2014-09-06T04:00:00Z,30.4178,-88.4054,1.26,28.2,1111122 
NERRS,ioos:station:NOAA.NERRS:gndbhwq:1,2014-09-06T05:00:00Z,30.4178,-88.4054,1.31,28.2,1111122 
NERRS,ioos:station:NOAA.NERRS:gndbhwq:1,2014-09-06T06:00:00Z,30.4178,-88.4054,1.34,28.2,1111122 
NERRS,ioos:station:NOAA.NERRS:gndbhwq:1,2014-09-06T07:00:00Z,30.4178,-88.4054,1.35,28.2,1111122 
NERRS,ioos:station:NOAA.NERRS:gndbhwq:1,2014-09-06T08:00:00Z,30.4178,-88.4054,1.4,28.3,1111122 
NERRS,ioos:station:NOAA.NERRS:gndbhwq:1,2014-09-06T09:00:00Z,30.4178,-88.4054,1.37,28.2,1111122 
NERRS,ioos:station:NOAA.NERRS:gndbhwq:1,2014-09-06T10:00:00Z,30.4178,-88.4054,1.44,28.3,1111122 
NERRS,ioos:station:NOAA.NERRS:gndbhwq:1,2014-09-06T11:00:00Z,30.4178,-88.4054,1.49,28.3,1111122 
NERRS,ioos:station:NOAA.NERRS:gndbhwq:1,2014-09-06T12:00:00Z,30.4178,-88.4054,1.51,28.3,1111122 
NERRS,ioos:station:NOAA.NERRS:gndbhwq:1,2014-09-06T13:00:00Z,30.4178,-88.4054,1.53,28.3,1111122 
NERRS,ioos:station:NOAA.NERRS:gndbhwq:1,2014-09-06T14:00:00Z,30.4178,-88.4054,1.5,28.3,1111122 
NERRS,ioos:station:NOAA.NERRS:gndbhwq:1,2014-09-06T15:00:00Z,30.4178,-88.4054,1.52,28.3,1111122 
NERRS,ioos:station:NOAA.NERRS:gndbhwq:1,2014-09-06T16:00:00Z,30.4178,-88.4054,1.47,28.3,1111122 
NERRS,ioos:station:NOAA.NERRS:gndbhwq:1,2014-09-06T17:00:00Z,30.4178,-88.4054,1.48,28.4,1111122 
NERRS,ioos:station:NOAA.NERRS:gndbhwq:1,2014-09-06T18:00:00Z,30.4178,-88.4054,1.37,28.3,1111122 
NERRS,ioos:station:NOAA.NERRS:gndbhwq:1,2014-09-06T19:00:00Z,30.4178,-88.4054,1.23,28.2,1111122 
NERRS,ioos:station:NOAA.NERRS:gndbhwq:1,2014-09-06T20:00:00Z,30.4178,-88.4054,1.19,28.2,1111122 
NERRS,ioos:station:NOAA.NERRS:gndbhwq:1,2014-09-06T21:00:00Z,30.4178,-88.4054,1.14,28.2,1111122 
NERRS,ioos:station:NOAA.NERRS:gndbhwq:1,2014-09-06T22:00:00Z,30.4178,-88.4054,1.07,28.1,1111122 
NERRS,ioos:station:NOAA.NERRS:gndbhwq:1,2014-09-06T23:00:00Z,30.4178,-88.4054,1.08,28.1,1111122 
NERRS,ioos:station:NOAA.NERRS:gndbhwq:1,2014-09-07T00:00:00Z,30.4178,-88.4054,1.08,28.2,1111122 
NERRS,ioos:station:NOAA.NERRS:gndbhwq:1,2014-09-07T01:00:00Z,30.4178,-88.4054,1.08,28.2,1111122 
NERRS,ioos:station:NOAA.NERRS:gndbhwq:1,2014-09-07T02:00:00Z,30.4178,-88.4054,1.16,28.1,1111122 
NERRS,ioos:station:NOAA.NERRS:gndbhwq:1,2014-09-07T03:00:00Z,30.4178,-88.4054,1.18,28.3,1111122 
NERRS,ioos:station:NOAA.NERRS:gndbhwq:1,2014-09-07T04:00:00Z,30.4178,-88.4054,1.24,28.2,1111122 
NERRS,ioos:station:NOAA.NERRS:gndbhwq:1,2014-09-07T05:00:00Z,30.4178,-88.4054,1.25,28.2,1111122 
NERRS,ioos:station:NOAA.NERRS:gndbhwq:1,2014-09-07T06:00:00Z,30.4178,-88.4054,1.27,28.2,1111122 
NERRS,ioos:station:NOAA.NERRS:gndbhwq:1,2014-09-07T07:00:00Z,30.4178,-88.4054,1.26,28.2,1111122 
NERRS,ioos:station:NOAA.NERRS:gndbhwq:1,2014-09-07T08:00:00Z,30.4178,-88.4054,1.26,28.2,1111122 
NERRS,ioos:station:NOAA.NERRS:gndbhwq:1,2014-09-07T09:00:00Z,30.4178,-88.4054,1.24,28.2,1111122 
NERRS,ioos:station:NOAA.NERRS:gndbhwq:1,2014-09-07T10:00:00Z,30.4178,-88.4054,1.36,28.2,1111122 
NERRS,ioos:station:NOAA.NERRS:gndbhwq:1,2014-09-07T11:00:00Z,30.4178,-88.4054,1.42,28.3,1111122 
NERRS,ioos:station:NOAA.NERRS:gndbhwq:1,2014-09-07T12:00:00Z,30.4178,-88.4054,1.49,28.3,1111122 
NERRS,ioos:station:NOAA.NERRS:gndbhwq:1,2014-09-07T13:00:00Z,30.4178,-88.4054,1.55,28.3,1111122 
NERRS,ioos:station:NOAA.NERRS:gndbhwq:1,2014-09-07T14:00:00Z,30.4178,-88.4054,1.59,28.3,1111122 
NERRS,ioos:station:NOAA.NERRS:gndbhwq:1,2014-09-07T15:00:00Z,30.4178,-88.4054,1.59,28.4,1111122 
NERRS,ioos:station:NOAA.NERRS:gndbhwq:1,2014-09-07T16:00:00Z,30.4178,-88.4054,1.53,28.4,1111122 
NERRS,ioos:station:NOAA.NERRS:gndbhwq:1,2014-09-07T17:00:00Z,30.4178,-88.4054,1.51,28.4,1111122 
NERRS,ioos:station:NOAA.NERRS:gndbhwq:1,2014-09-07T18:00:00Z,30.4178,-88.4054,1.48,28.5,1111122 
NERRS,ioos:station:NOAA.NERRS:gndbhwq:1,2014-09-07T19:00:00Z,30.4178,-88.4054,1.41,28.4,1111122 
NERRS,ioos:station:NOAA.NERRS:gndbhwq:1,2014-09-07T20:00:00Z,30.4178,-88.4054,1.25,28.3,1111122 
NERRS,ioos:station:NOAA.NERRS:gndbhwq:1,2014-09-07T21:00:00Z,30.4178,-88.4054,1.24,28.3,1111122 
NERRS,ioos:station:NOAA.NERRS:gndbhwq:1,2014-09-07T22:00:00Z,30.4178,-88.4054,1.15,28.4,1111122 
NERRS,ioos:station:NOAA.NERRS:gndbhwq:1,2014-09-07T23:00:00Z,30.4178,-88.4054,1.1,28.3,1111122 
NERRS,ioos:station:NOAA.NERRS:gndbhwq:1,2014-09-08T00:00:00Z,30.4178,-88.4054,1.13,28.4,1111122 
NERRS,ioos:station:NOAA.NERRS:gndbhwq:1,2014-09-08T01:00:00Z,30.4178,-88.4054,1.1,28.4,1111122 
NERRS,ioos:station:NOAA.NERRS:gndbhwq:1,2014-09-08T02:00:00Z,30.4178,-88.4054,1.18,28.4,1111122 
NERRS,ioos:station:NOAA.NERRS:gndbhwq:1,2014-09-08T03:00:00Z,30.4178,-88.4054,1.14,28.5,1111122 
NERRS,ioos:station:NOAA.NERRS:gndbhwq:1,2014-09-08T04:00:00Z,30.4178,-88.4054,1.21,28.5,1111122 
NERRS,ioos:station:NOAA.NERRS:gndbhwq:1,2014-09-08T05:00:00Z,30.4178,-88.4054,1.18,28.5,1111122 
NERRS,ioos:station:NOAA.NERRS:gndbhwq:1,2014-09-08T06:00:00Z,30.4178,-88.4054,1.27,28.6,1111122 
NERRS,ioos:station:NOAA.NERRS:gndbhwq:1,2014-09-08T07:00:00Z,30.4178,-88.4054,1.3,28.6,1111122 
NERRS,ioos:station:NOAA.NERRS:gndbhwq:1,2014-09-08T08:00:00Z,30.4178,-88.4054,1.23,28.5,1111122 
NERRS,ioos:station:NOAA.NERRS:gndbhwq:1,2014-09-08T09:00:00Z,30.4178,-88.4054,1.31,28.6,1111122 
NERRS,ioos:station:NOAA.NERRS:gndbhwq:1,2014-09-08T10:00:00Z,30.4178,-88.4054,1.31,28.5,1111122 
NERRS,ioos:station:NOAA.NERRS:gndbhwq:1,2014-09-08T12:00:00Z,30.4178,-88.4054,1.4,28.5,1111122 
NERRS,ioos:station:NOAA.NERRS:gndbhwq:1,2014-09-08T13:00:00Z,30.4178,-88.4054,1.47,28.6,1111122 
NERRS,ioos:station:NOAA.NERRS:gndbhwq:1,2014-09-08T14:00:00Z,30.4178,-88.4054,1.54,28.6,1111122 
NERRS,ioos:station:NOAA.NERRS:gndbhwq:1,2014-09-08T15:00:00Z,30.4178,-88.4054,1.57,28.6,1111122 
NERRS,ioos:station:NOAA.NERRS:gndbhwq:1,2014-09-08T16:00:00Z,30.4178,-88.4054,1.52,28.5,1111122 
NERRS,ioos:station:NOAA.NERRS:gndbhwq:1,2014-09-08T17:00:00Z,30.4178,-88.4054,1.51,28.7,1111122 
NERRS,ioos:station:NOAA.NERRS:gndbhwq:1,2014-09-08T18:00:00Z,30.4178,-88.4054,1.52,28.7,1111122 
NERRS,ioos:station:NOAA.NERRS:gndbhwq:1,2014-09-08T19:00:00Z,30.4178,-88.4054,1.5,28.7,1111122 
NERRS,ioos:station:NOAA.NERRS:gndbhwq:1,2014-09-08T20:00:00Z,30.4178,-88.4054,1.44,28.6,1111122 
NERRS,ioos:station:NOAA.NERRS:gndbhwq:1,2014-09-08T21:00:00Z,30.4178,-88.4054,1.3,28.6,1111122 
NERRS,ioos:station:NOAA.NERRS:gndbhwq:1,2014-09-08T22:00:00Z,30.4178,-88.4054,1.2,28.5,1111122 
NERRS,ioos:station:NOAA.NERRS:gndbhwq:1,2014-09-08T23:00:00Z,30.4178,-88.4054,1.22,28.6,1111122 
NERRS,ioos:station:NOAA.NERRS:gndbhwq:1,2014-09-09T00:00:00Z,30.4178,-88.4054,1.22,28.6,1111122 
NERRS,ioos:station:NOAA.NERRS:gndbhwq:1,2014-09-09T01:00:00Z,30.4178,-88.4054,1.29,28.5,1111122 
NERRS,ioos:station:NOAA.NERRS:gndbhwq:1,2014-09-09T02:00:00Z,30.4178,-88.4054,1.3,28.6,1111122 
NERRS,ioos:station:NOAA.NERRS:gndbhwq:1,2014-09-09T03:00:00Z,30.4178,-88.4054,1.3,28.6,1111122 
NERRS,ioos:station:NOAA.NERRS:gndbhwq:1,2014-09-09T04:00:00Z,30.4178,-88.4054,1.27,28.6,1111122 
NERRS,ioos:station:NOAA.NERRS:gndbhwq:1,2014-09-09T05:00:00Z,30.4178,-88.4054,1.35,28.6,1111122 
NERRS,ioos:station:NOAA.NERRS:gndbhwq:1,2014-09-09T07:00:00Z,30.4178,-88.4054,1.36,28.7,1111122 
NERRS,ioos:station:NOAA.NERRS:gndbhwq:1,2014-09-09T08:00:00Z,30.4178,-88.4054,1.31,28.6,1111122 
NERRS,ioos:station:NOAA.NERRS:gndbhwq:1,2014-09-09T09:00:00Z,30.4178,-88.4054,1.28,28.6,1111122 
NERRS,ioos:station:NOAA.NERRS:gndbhwq:1,2014-09-09T10:00:00Z,30.4178,-88.4054,1.25,28.7,1111122 
NERRS,ioos:station:NOAA.NERRS:gndbhwq:1,2014-09-09T11:00:00Z,30.4178,-88.4054,1.23,28.6,1111122 
NERRS,ioos:station:NOAA.NERRS:gndbhwq:1,2014-09-09T12:00:00Z,30.4178,-88.4054,1.3,28.6,1111122 
NERRS,ioos:station:NOAA.NERRS:gndbhwq:1,2014-09-09T13:00:00Z,30.4178,-88.4054,1.39,28.6,1111122 
NERRS,ioos:station:NOAA.NERRS:gndbhwq:1,2014-09-09T14:00:00Z,30.4178,-88.4054,1.47,28.6,1111122 
NERRS,ioos:station:NOAA.NERRS:gndbhwq:1,2014-09-09T15:00:00Z,30.4178,-88.4054,1.5,28.7,1111122 
NERRS,ioos:station:NOAA.NERRS:gndbhwq:1,2014-09-09T16:00:00Z,30.4178,-88.4054,1.45,28.6,1111122 
NERRS,ioos:station:NOAA.NERRS:gndbhwq:1,2014-09-09T17:00:00Z,30.4178,-88.4054,1.5,28.6,1111122 
NERRS,ioos:station:NOAA.NERRS:gndbhwq:1,2014-09-09T18:00:00Z,30.4178,-88.4054,1.5,28.6,1111122 
NERRS,ioos:station:NOAA.NERRS:gndbhwq:1,2014-09-10T01:00:00Z,30.4178,-88.4054,1.26,28.3,1111122 
NERRS,ioos:station:NOAA.NERRS:gndbhwq:1,2014-09-10T02:00:00Z,30.4178,-88.4054,1.4,28.5,1111122 
NERRS,ioos:station:NOAA.NERRS:gndbhwq:1,2014-09-10T03:00:00Z,30.4178,-88.4054,1.43,28.5,1111122 
NERRS,ioos:station:NOAA.NERRS:gndbhwq:1,2014-09-10T04:00:00Z,30.4178,-88.4054,1.39,28.4,1111122 
NERRS,ioos:station:NOAA.NERRS:gndbhwq:1,2014-09-10T05:00:00Z,30.4178,-88.4054,1.35,28.5,1111122 
NERRS,ioos:station:NOAA.NERRS:gndbhwq:1,2014-09-10T06:00:00Z,30.4178,-88.4054,1.31,28.5,1111122 
NERRS,ioos:station:NOAA.NERRS:gndbhwq:1,2014-09-10T07:00:00Z,30.4178,-88.4054,1.37,28.4,1111122 
NERRS,ioos:station:NOAA.NERRS:gndbhwq:1,2014-09-10T08:00:00Z,30.4178,-88.4054,1.38,28.5,1111122 
NERRS,ioos:station:NOAA.NERRS:gndbhwq:1,2014-09-10T09:00:00Z,30.4178,-88.4054,1.34,28.2,1111122 
NERRS,ioos:station:NOAA.NERRS:gndbhwq:1,2014-09-10T11:00:00Z,30.4178,-88.4054,1.21,28.4,1111122 
NERRS,ioos:station:NOAA.NERRS:gndbhwq:1,2014-09-10T12:00:00Z,30.4178,-88.4054,1.18,28.2,1111122 
NERRS,ioos:station:NOAA.NERRS:gndbhwq:1,2014-09-10T13:00:00Z,30.4178,-88.4054,1.27,28.3,1111122 
NERRS,ioos:station:NOAA.NERRS:gndbhwq:1,2014-09-10T14:00:00Z,30.4178,-88.4054,1.35,28.2,1111122 
NERRS,ioos:station:NOAA.NERRS:gndbhwq:1,2014-09-10T15:00:00Z,30.4178,-88.4054,1.39,28.2,1111122 
NERRS,ioos:station:NOAA.NERRS:gndbhwq:1,2014-09-10T16:00:00Z,30.4178,-88.4054,1.43,28.3,1111122 
NERRS,ioos:station:NOAA.NERRS:gndbhwq:1,2014-09-10T17:00:00Z,30.4178,-88.4054,1.39,28.3,1111122 
NERRS,ioos:station:NOAA.NERRS:gndbhwq:1,2014-09-10T18:00:00Z,30.4178,-88.4054,1.43,28.3,1111122 
NERRS,ioos:station:NOAA.NERRS:gndbhwq:1,2014-09-10T19:00:00Z,30.4178,-88.4054,1.47,28.2,1111122 
NERRS,ioos:station:NOAA.NERRS:gndbhwq:1,2014-09-10T20:00:00Z,30.4178,-88.4054,1.49,28.2,1111122 
NERRS,ioos:station:NOAA.NERRS:gndbhwq:1,2014-09-10T21:00:00Z,30.4178,-88.4054,1.47,28.2,1111122 
NERRS,ioos:station:NOAA.NERRS:gndbhwq:1,2014-09-10T22:00:00Z,30.4178,-88.4054,1.42,28.2,1111122 
NERRS,ioos:station:NOAA.NERRS:gndbhwq:1,2014-09-10T23:00:00Z,30.4178,-88.4054,1.37,28.3,1111122 
NERRS,ioos:station:NOAA.NERRS:gndbhwq:1,2014-09-11T00:00:00Z,30.4178,-88.4054,1.37,28.3,1111122 
NERRS,ioos:station:NOAA.NERRS:gndbhwq:1,2014-09-11T06:00:00Z,30.4178,-88.4054,1.48,28.3,1111122 
NERRS,ioos:station:NOAA.NERRS:gndbhwq:1,2014-09-11T11:00:00Z,30.4178,-88.4054,1.2,28.2,1111122 
NERRS,ioos:station:NOAA.NERRS:gndbhwq:1,2014-09-11T12:00:00Z,30.4178,-88.4054,1.19,28.2,1111122 
NERRS,ioos:station:NOAA.NERRS:gndbhwq:1,2014-09-11T14:00:00Z,30.4178,-88.4054,1.22,28.1,1111122 
NERRS,ioos:station:NOAA.NERRS:gndbhwq:1,2014-09-11T15:00:00Z,30.4178,-88.4054,1.33,28.2,1111122 
NERRS,ioos:station:NOAA.NERRS:gndbhwq:1,2014-09-11T16:00:00Z,30.4178,-88.4054,1.35,28.3,1111122 
NERRS,ioos:station:NOAA.NERRS:gndbhwq:1,2014-09-11T17:00:00Z,30.4178,-88.4054,1.33,28.2,1111122 
NERRS,ioos:station:NOAA.NERRS:gndbhwq:1,2014-09-11T17:45:00Z,30.4178,-88.4054,1.33,28.2,1111122 
NERRS,ioos:station:NOAA.NERRS:gndbhwq:1,2014-09-11T19:00:00Z,30.4178,-88.4054,1.34,28.2,1111122 
NERRS,ioos:station:NOAA.NERRS:gndbhwq:1,2014-09-11T20:00:00Z,30.4178,-88.4054,1.39,28.1,1111122 
NERRS,ioos:station:NOAA.NERRS:gndbhwq:1,2014-09-11T21:00:00Z,30.4178,-88.4054,1.41,28.1,1111122 
NERRS,ioos:station:NOAA.NERRS:gndbhwq:1,2014-09-11T22:00:00Z,30.4178,-88.4054,1.4,28.1,1111122 
NERRS,ioos:station:NOAA.NERRS:gndbhwq:1,2014-09-11T23:00:00Z,30.4178,-88.4054,1.37,28.0,1111122 
NERRS,ioos:station:NOAA.NERRS:gndbhwq:1,2014-09-12T00:00:00Z,30.4178,-88.4054,1.4,28.0,1111122 
NERRS,ioos:station:NOAA.NERRS:gndbhwq:1,2014-09-12T01:00:00Z,30.4178,-88.4054,1.44,28.1,1111122 
NERRS,ioos:station:NOAA.NERRS:gndbhwq:1,2014-09-12T02:00:00Z,30.4178,-88.4054,1.48,28.2,1111122 
NERRS,ioos:station:NOAA.NERRS:gndbhwq:1,2014-09-12T03:00:00Z,30.4178,-88.4054,1.53,28.2,1111122 
NERRS,ioos:station:NOAA.NERRS:gndbhwq:1,2014-09-12T04:00:00Z,30.4178,-88.4054,1.57,28.2,1111122 
NERRS,ioos:station:NOAA.NERRS:gndbhwq:1,2014-09-12T05:00:00Z,30.4178,-88.4054,1.57,28.2,1111122 
NERRS,ioos:station:NOAA.NERRS:gndbhwq:1,2014-09-12T06:00:00Z,30.4178,-88.4054,1.53,28.2,1111122 
NERRS,ioos:station:NOAA.NERRS:gndbhwq:1,2014-09-12T07:00:00Z,30.4178,-88.4054,1.49,28.2,1111122 
NERRS,ioos:station:NOAA.NERRS:gndbhwq:1,2014-09-12T08:00:00Z,30.4178,-88.4054,1.48,28.2,1111122 
NERRS,ioos:station:NOAA.NERRS:gndbhwq:1,2014-09-12T09:00:00Z,30.4178,-88.4054,1.45,28.2,1111122 
NERRS,ioos:station:NOAA.NERRS:gndbhwq:1,2014-09-12T10:00:00Z,30.4178,-88.4054,1.36,28.2,1111122 
NERRS,ioos:station:NOAA.NERRS:gndbhwq:1,2014-09-12T11:00:00Z,30.4178,-88.4054,1.28,28.1,1111122 